Regional Weather Roundup
Issued by NWS

Home | Current Version | Previous Version | Graphics & Text | Print | Product List | Glossary On
Versions: 1 2 3 4 5 6 7 8 9 10 11 12 13 14 15 16 17 18 19 20 21 22 23 24 25 26 27 28 29 30 31 32 33 34 35 36 37 38 39 40 41 42 43 44 45 46 47 48 49 50
000
ASUS43 KLMK 160010
RWRKY
KENTUCKY REGIONAL WEATHER ROUNDUP
NATIONAL WEATHER SERVICE LOUISVILLE KY
800 PM EDT MON SEP 15 2014

NOTE "FAIR" INDICATES FEW OR NO CLOUDS BELOW 12,000 FEET
WITH NO SIGNIFICANT WEATHER AND/OR OBSTRUCTIONS TO VISIBILITY.

KYZ001>023-026-027-061>063-070>075-160100-
WESTERN AND SOUTH CENTRAL KENTUCKY

CITY           SKY/WX    TMP DP  RH WIND       PRES   REMARKS
PADUCAH        MOCLDY    73  62  68 CALM      30.06F
HENDERSON      CLOUDY    72  57  60 S5        30.05S
OWENSBORO      MOCLDY    72  60  65 S7        30.06F
HOPKINSVILLE   CLOUDY    70  64  82 S7        30.09S
BOWLING GREEN  MOCLDY    71  61  70 S6        30.10S
GLASGOW        CLOUDY    69  61  74 CALM      30.10F
$$

KYZ024-025-028>034-038-045-046-053-160100-
NORTH CENTRAL KENTUCKY

CITY           SKY/WX    TMP DP  RH WIND       PRES   REMARKS
LOUISVILLE/SDF CLOUDY    71  55  56 E3        30.08R
LOUISVILLE/LOU CLOUDY    71  55  56 N8        30.10R
FORT KNOX      CLOUDY    69  60  73 S6        30.06F
$$

KYZ035>037-039>044-047>052-055>060-089>105-160100-
NORTHEAST KENTUCKY

CITY           SKY/WX    TMP DP  RH WIND       PRES   REMARKS
LEXINGTON      CLOUDY    70  53  54 S7        30.06F
COVINGTON      RAIN      58  55  90 S9        30.08S FOG
FRANKFORT      CLOUDY    67  55  65 N6        30.08R
$$

KYZ054-064>069-076>088-106>120-160100-
SOUTHEAST KENTUCKY

CITY           SKY/WX    TMP DP  RH WIND       PRES   REMARKS
JACKSON        MOCLDY    67  59  75 CALM      30.14S
LONDON         CLOUDY    70  61  73 CALM      30.13F
SOMERSET       NOT AVBL
MIDDLESBORO    CLOUDY    68  67  96 CALM      30.14S
MONTICELLO     CLOUDY    67  62  84 CALM      30.13F
$$




USA.gov is the U.S. government's official web portal to all federal, state and local government web resources and services.